Year,Month,Day,Hour,Minute,Value (Times are PST for temperature in C)
2020,05,05,00,00,7.40
2020,05,05,00,01,7.40
2020,05,05,00,02,7.40
2020,05,05,00,03,7.30
2020,05,05,00,04,7.30
2020,05,05,00,05,7.30
2020,05,05,00,06,7.30
2020,05,05,00,07,7.30
2020,05,05,00,08,7.30
2020,05,05,00,09,7.30
2020,05,05,00,10,7.30
2020,05,05,00,11,7.30
2020,05,05,00,12,7.20
2020,05,05,00,13,7.20
2020,05,05,00,14,7.20
2020,05,05,00,15,7.20
2020,05,05,00,16,7.20
2020,05,05,00,17,7.20
2020,05,05,00,18,7.10
2020,05,05,00,19,7.10
2020,05,05,00,20,7.10
2020,05,05,00,21,7.10
2020,05,05,00,22,7.10
2020,05,05,00,23,7.10
2020,05,05,00,24,7.00
2020,05,05,00,25,7.00
2020,05,05,00,26,7.00
2020,05,05,00,27,7.00
2020,05,05,00,28,7.00
2020,05,05,00,29,6.90
2020,05,05,00,30,6.90
2020,05,05,00,31,6.90
2020,05,05,00,32,6.90
2020,05,05,00,33,6.90
2020,05,05,00,34,6.90
2020,05,05,00,35,6.90
2020,05,05,00,36,6.90
2020,05,05,00,37,6.80
2020,05,05,00,38,6.80
2020,05,05,00,39,6.80
2020,05,05,00,40,6.80
2020,05,05,00,41,6.80
2020,05,05,00,42,6.80
2020,05,05,00,43,6.80
2020,05,05,00,44,6.80
2020,05,05,00,45,6.80
2020,05,05,00,46,6.70
2020,05,05,00,47,6.70
2020,05,05,00,48,6.70
2020,05,05,00,49,6.70
2020,05,05,00,50,6.60
2020,05,05,00,51,6.60
2020,05,05,00,52,6.60
2020,05,05,00,53,6.50
2020,05,05,00,54,6.50
2020,05,05,00,55,6.50
2020,05,05,00,56,6.50
2020,05,05,00,57,6.50
2020,05,05,00,58,6.50
2020,05,05,00,59,6.50
2020,05,05,01,00,6.50
2020,05,05,01,01,6.50
2020,05,05,01,02,6.50
2020,05,05,01,03,6.50
2020,05,05,01,04,6.40
2020,05,05,01,05,6.40
2020,05,05,01,06,6.40
2020,05,05,01,07,6.40
2020,05,05,01,08,6.40
2020,05,05,01,09,6.40
2020,05,05,01,10,6.40
2020,05,05,01,11,6.30
2020,05,05,01,12,6.40
2020,05,05,01,13,6.30
2020,05,05,01,14,6.30
2020,05,05,01,15,6.30
2020,05,05,01,16,6.30
2020,05,05,01,17,6.30
2020,05,05,01,18,6.30
2020,05,05,01,19,6.30
2020,05,05,01,20,6.20
2020,05,05,01,21,6.20
2020,05,05,01,22,6.20
2020,05,05,01,23,6.10
2020,05,05,01,24,6.10
2020,05,05,01,25,6.10
2020,05,05,01,26,6.10
2020,05,05,01,27,6.00
2020,05,05,01,28,6.00
2020,05,05,01,29,5.90
2020,05,05,01,30,5.90
2020,05,05,01,31,5.90
2020,05,05,01,32,5.90
2020,05,05,01,33,5.90
2020,05,05,01,34,5.80
2020,05,05,01,35,5.80
2020,05,05,01,36,5.80
2020,05,05,01,37,5.80
2020,05,05,01,38,5.80
2020,05,05,01,39,5.80
2020,05,05,01,40,5.80
2020,05,05,01,41,5.80
2020,05,05,01,42,5.80
2020,05,05,01,43,5.80
2020,05,05,01,44,5.80
2020,05,05,01,45,5.80
2020,05,05,01,46,5.70
2020,05,05,01,47,5.70
2020,05,05,01,48,5.70
2020,05,05,01,49,5.70
2020,05,05,01,50,5.60
2020,05,05,01,51,5.60
2020,05,05,01,52,5.50
2020,05,05,01,53,5.50
2020,05,05,01,54,5.50
2020,05,05,01,55,5.50
2020,05,05,01,56,5.40
2020,05,05,01,57,5.50
2020,05,05,01,58,5.50
2020,05,05,01,59,5.50
2020,05,05,02,00,5.50
2020,05,05,02,01,5.40
2020,05,05,02,02,5.40
2020,05,05,02,03,5.40
2020,05,05,02,04,5.40
2020,05,05,02,05,5.40
2020,05,05,02,06,5.40
2020,05,05,02,07,5.40
2020,05,05,02,08,5.40
2020,05,05,02,09,5.40
2020,05,05,02,10,5.30
2020,05,05,02,11,5.30
2020,05,05,02,12,5.30
2020,05,05,02,13,5.30
2020,05,05,02,14,5.20
2020,05,05,02,15,5.20
2020,05,05,02,16,5.20
2020,05,05,02,17,5.10
2020,05,05,02,18,5.10
2020,05,05,02,19,5.10
2020,05,05,02,20,5.00
2020,05,05,02,21,5.00
2020,05,05,02,22,5.00
2020,05,05,02,23,5.00
2020,05,05,02,24,5.00
2020,05,05,02,25,4.90
2020,05,05,02,26,4.90
2020,05,05,02,27,4.90
2020,05,05,02,28,4.90
2020,05,05,02,29,4.90
2020,05,05,02,30,4.90
2020,05,05,02,31,4.80
2020,05,05,02,32,4.80
2020,05,05,02,33,4.80
2020,05,05,02,34,4.80
2020,05,05,02,35,4.80
2020,05,05,02,36,4.80
2020,05,05,02,37,4.70
2020,05,05,02,38,4.70
2020,05,05,02,39,4.70
2020,05,05,02,40,4.70
2020,05,05,02,41,4.70
2020,05,05,02,42,4.70
2020,05,05,02,43,4.70
2020,05,05,02,44,4.70
2020,05,05,02,45,4.60
2020,05,05,02,46,4.60
2020,05,05,02,47,4.60
2020,05,05,02,48,4.60
2020,05,05,02,49,4.60
2020,05,05,02,50,4.60
2020,05,05,02,51,4.60
2020,05,05,02,52,4.50
2020,05,05,02,53,4.60
2020,05,05,02,54,4.50
2020,05,05,02,55,4.60
2020,05,05,02,56,4.60
2020,05,05,02,57,4.60
2020,05,05,02,58,4.60
2020,05,05,02,59,4.60
2020,05,05,03,00,4.60
2020,05,05,03,01,4.60
2020,05,05,03,02,4.60
2020,05,05,03,03,4.60
2020,05,05,03,04,4.60
2020,05,05,03,05,4.60
2020,05,05,03,06,4.60
2020,05,05,03,07,4.60
2020,05,05,03,08,4.50
2020,05,05,03,09,4.50
2020,05,05,03,10,4.50
2020,05,05,03,11,4.40
2020,05,05,03,12,4.40
2020,05,05,03,13,4.40
2020,05,05,03,14,4.40
2020,05,05,03,15,4.40
2020,05,05,03,16,4.30
2020,05,05,03,17,4.30
2020,05,05,03,18,4.30
2020,05,05,03,19,4.30
2020,05,05,03,20,4.30
2020,05,05,03,21,4.30
2020,05,05,03,22,4.20
2020,05,05,03,23,4.20
2020,05,05,03,24,4.20
2020,05,05,03,25,4.20
2020,05,05,03,26,4.20
2020,05,05,03,27,4.20
2020,05,05,03,28,4.20
2020,05,05,03,29,4.20
2020,05,05,03,30,4.20
2020,05,05,03,31,4.20
2020,05,05,03,32,4.10
2020,05,05,03,33,4.10
2020,05,05,03,34,4.10
2020,05,05,03,35,4.10
2020,05,05,03,36,4.10
2020,05,05,03,37,4.10
2020,05,05,03,38,4.10
2020,05,05,03,39,4.10
2020,05,05,03,40,4.10
2020,05,05,03,41,4.10
2020,05,05,03,42,4.10
2020,05,05,03,43,4.10
2020,05,05,03,44,4.10
2020,05,05,03,45,4.10
2020,05,05,03,46,4.00
2020,05,05,03,47,4.10
2020,05,05,03,48,4.00
2020,05,05,03,49,4.00
2020,05,05,03,50,4.00
2020,05,05,03,51,4.00
2020,05,05,03,52,4.00
2020,05,05,03,53,4.00
2020,05,05,03,54,3.90
2020,05,05,03,55,3.90
2020,05,05,03,56,3.90
2020,05,05,03,57,3.90
2020,05,05,03,58,3.90
2020,05,05,03,59,3.90
2020,05,05,04,00,3.80
2020,05,05,04,01,3.80
2020,05,05,04,02,3.80
2020,05,05,04,03,3.80
2020,05,05,04,04,3.80
2020,05,05,04,05,3.80
2020,05,05,04,06,3.80
2020,05,05,04,07,3.80
2020,05,05,04,08,3.80
2020,05,05,04,09,3.80
2020,05,05,04,10,3.80
2020,05,05,04,11,3.80
2020,05,05,04,12,3.80
2020,05,05,04,13,3.80
2020,05,05,04,14,3.80
2020,05,05,04,15,3.80
2020,05,05,04,16,3.80
2020,05,05,04,17,3.80
2020,05,05,04,18,3.80
2020,05,05,04,19,3.80
2020,05,05,04,20,3.80
2020,05,05,04,21,3.80
2020,05,05,04,22,3.80
2020,05,05,04,23,3.80
2020,05,05,04,24,3.80
2020,05,05,04,25,3.80
2020,05,05,04,26,3.80
2020,05,05,04,27,3.80
2020,05,05,04,28,3.80
2020,05,05,04,29,3.80
2020,05,05,04,30,3.70
2020,05,05,04,31,3.70
2020,05,05,04,32,3.70
2020,05,05,04,33,3.70
2020,05,05,04,34,3.70
2020,05,05,04,35,3.60
2020,05,05,04,36,3.60
2020,05,05,04,37,3.60
2020,05,05,04,38,3.60
2020,05,05,04,39,3.60
2020,05,05,04,40,3.60
2020,05,05,04,41,3.60
2020,05,05,04,42,3.60
2020,05,05,04,43,3.60
2020,05,05,04,44,3.60
2020,05,05,04,45,3.60
2020,05,05,04,46,3.60
2020,05,05,04,47,3.60
2020,05,05,04,48,3.60
2020,05,05,04,49,3.60
2020,05,05,04,50,3.60
2020,05,05,04,51,3.50
2020,05,05,04,52,3.50
2020,05,05,04,53,3.50
2020,05,05,04,54,3.50
2020,05,05,04,55,3.50
2020,05,05,04,56,3.50
2020,05,05,04,57,3.50
2020,05,05,04,58,3.50
2020,05,05,04,59,3.50
2020,05,05,05,00,3.50
2020,05,05,05,01,3.50
2020,05,05,05,02,3.50
2020,05,05,05,03,3.50
2020,05,05,05,04,3.50
2020,05,05,05,05,3.50
2020,05,05,05,06,3.50
2020,05,05,05,07,3.50
2020,05,05,05,08,3.40
2020,05,05,05,09,3.40
2020,05,05,05,10,3.40
2020,05,05,05,11,3.40
2020,05,05,05,12,3.40
2020,05,05,05,13,3.40
2020,05,05,05,14,3.40
2020,05,05,05,15,3.30
2020,05,05,05,16,3.40
2020,05,05,05,17,3.30
2020,05,05,05,18,3.30
2020,05,05,05,19,3.30
2020,05,05,05,20,3.30
2020,05,05,05,21,3.30
2020,05,05,05,22,3.30
2020,05,05,05,23,3.30
2020,05,05,05,24,3.30
2020,05,05,05,25,3.30
2020,05,05,05,26,3.30
2020,05,05,05,27,3.30
2020,05,05,05,28,3.30
2020,05,05,05,29,3.30
2020,05,05,05,30,3.30
2020,05,05,05,31,3.30
2020,05,05,05,32,3.30
2020,05,05,05,33,3.30
2020,05,05,05,34,3.30
2020,05,05,05,35,3.30
2020,05,05,05,36,3.20
2020,05,05,05,37,3.20
2020,05,05,05,38,3.20
2020,05,05,05,39,3.20
2020,05,05,05,40,3.10
2020,05,05,05,41,3.10
2020,05,05,05,42,3.10
2020,05,05,05,43,3.10
2020,05,05,05,44,3.10
2020,05,05,05,45,3.10
2020,05,05,05,46,3.10
2020,05,05,05,47,3.10
2020,05,05,05,48,3.10
2020,05,05,05,49,3.10
2020,05,05,05,50,3.10
2020,05,05,05,51,3.10
2020,05,05,05,52,3.10
2020,05,05,05,53,3.10
2020,05,05,05,54,3.10
2020,05,05,05,55,3.10
2020,05,05,05,56,3.10
2020,05,05,05,57,3.10
2020,05,05,05,58,3.10
2020,05,05,05,59,3.10
2020,05,05,06,00,3.10
2020,05,05,06,01,3.00
2020,05,05,06,02,3.00
2020,05,05,06,03,3.00
2020,05,05,06,04,3.00
2020,05,05,06,05,3.00
2020,05,05,06,06,3.00
2020,05,05,06,07,3.00
2020,05,05,06,08,2.90
2020,05,05,06,09,2.90
2020,05,05,06,10,2.90
2020,05,05,06,11,2.90
2020,05,05,06,12,2.90
2020,05,05,06,13,2.90
2020,05,05,06,14,2.90
2020,05,05,06,15,2.90
2020,05,05,06,16,2.90
2020,05,05,06,17,2.90
2020,05,05,06,18,2.90
2020,05,05,06,19,2.90
2020,05,05,06,20,2.80
2020,05,05,06,21,2.80
2020,05,05,06,22,2.90
2020,05,05,06,23,2.90
2020,05,05,06,24,2.90
2020,05,05,06,25,2.90
2020,05,05,06,26,2.90
2020,05,05,06,27,2.90
2020,05,05,06,28,2.90
2020,05,05,06,29,2.90
2020,05,05,06,30,2.90
2020,05,05,06,31,2.90
2020,05,05,06,32,2.90
2020,05,05,06,33,2.90
2020,05,05,06,34,2.90
2020,05,05,06,35,2.90
2020,05,05,06,36,2.90
2020,05,05,06,37,2.90
2020,05,05,06,38,2.90
2020,05,05,06,39,2.90
2020,05,05,06,40,2.90
2020,05,05,06,41,2.90
2020,05,05,06,42,2.90
2020,05,05,06,43,2.90
2020,05,05,06,44,2.90
2020,05,05,06,45,2.90
2020,05,05,06,46,2.90
2020,05,05,06,47,2.90
2020,05,05,06,48,2.90
2020,05,05,06,49,2.90
2020,05,05,06,50,2.90
2020,05,05,06,51,2.90
2020,05,05,06,52,2.90
2020,05,05,06,53,3.00
2020,05,05,06,54,3.00
2020,05,05,06,55,3.00
2020,05,05,06,56,3.00
2020,05,05,06,57,3.00
2020,05,05,06,58,3.00
2020,05,05,06,59,3.00
2020,05,05,07,00,3.00
2020,05,05,07,01,3.10
2020,05,05,07,02,3.10
2020,05,05,07,03,3.10
2020,05,05,07,04,3.10
2020,05,05,07,05,3.10
2020,05,05,07,06,3.20
2020,05,05,07,07,3.20
2020,05,05,07,08,3.30
2020,05,05,07,09,3.30
2020,05,05,07,10,3.30
2020,05,05,07,11,3.30
2020,05,05,07,12,3.40
2020,05,05,07,13,3.40
2020,05,05,07,14,3.40
2020,05,05,07,15,3.40
2020,05,05,07,16,3.40
2020,05,05,07,17,3.40
2020,05,05,07,18,3.40
2020,05,05,07,19,3.40
2020,05,05,07,20,3.40
2020,05,05,07,21,3.50
2020,05,05,07,22,3.60
2020,05,05,07,23,3.70
2020,05,05,07,24,3.70
2020,05,05,07,25,3.80
2020,05,05,07,26,3.80
2020,05,05,07,27,3.80
2020,05,05,07,28,3.90
2020,05,05,07,29,3.90
2020,05,05,07,30,3.90
2020,05,05,07,31,3.90
2020,05,05,07,32,3.90
2020,05,05,07,33,3.90
2020,05,05,07,34,4.00
2020,05,05,07,35,4.00
2020,05,05,07,36,4.10
2020,05,05,07,37,4.10
2020,05,05,07,38,4.20
2020,05,05,07,39,4.20
2020,05,05,07,40,4.20
2020,05,05,07,41,4.20
2020,05,05,07,42,4.30
2020,05,05,07,43,4.30
2020,05,05,07,44,4.30
2020,05,05,07,45,4.30
2020,05,05,07,46,4.30
2020,05,05,07,47,4.40
2020,05,05,07,48,4.40
2020,05,05,07,49,4.50
2020,05,05,07,50,4.50
2020,05,05,07,51,4.50
2020,05,05,07,52,4.70
2020,05,05,07,53,4.70
2020,05,05,07,54,4.80
2020,05,05,07,55,4.80
2020,05,05,07,56,4.90
2020,05,05,07,57,4.90
2020,05,05,07,58,5.00
2020,05,05,07,59,5.00
2020,05,05,08,00,5.10
2020,05,05,08,01,5.20
2020,05,05,08,02,5.20
2020,05,05,08,03,5.30
2020,05,05,08,04,5.30
2020,05,05,08,05,5.40
2020,05,05,08,06,5.40
2020,05,05,08,07,5.50
2020,05,05,08,08,5.60
2020,05,05,08,09,5.70
2020,05,05,08,10,5.70
2020,05,05,08,11,5.80
2020,05,05,08,12,5.90
2020,05,05,08,13,6.00
2020,05,05,08,14,6.10
2020,05,05,08,15,6.20
2020,05,05,08,16,6.30
2020,05,05,08,17,6.50
2020,05,05,08,18,6.60
2020,05,05,08,19,6.70
2020,05,05,08,20,6.80
2020,05,05,08,21,6.80
2020,05,05,08,22,6.90
2020,05,05,08,23,6.90
2020,05,05,08,24,6.90
2020,05,05,08,25,7.00
2020,05,05,08,26,7.10
2020,05,05,08,27,7.20
2020,05,05,08,28,7.20
2020,05,05,08,29,7.30
2020,05,05,08,30,7.40
2020,05,05,08,31,7.50
2020,05,05,08,32,7.50
2020,05,05,08,33,7.60
2020,05,05,08,34,7.70
2020,05,05,08,35,7.70
2020,05,05,08,36,7.80
2020,05,05,08,37,7.80
2020,05,05,08,38,7.90
2020,05,05,08,39,7.90
2020,05,05,08,40,8.00
2020,05,05,08,41,8.10
2020,05,05,08,42,8.10
2020,05,05,08,43,8.30
2020,05,05,08,44,8.40
2020,05,05,08,45,8.50
2020,05,05,08,46,8.60
2020,05,05,08,47,8.70
2020,05,05,08,48,8.80
2020,05,05,08,49,8.80
2020,05,05,08,50,8.90
2020,05,05,08,51,8.90
2020,05,05,08,52,9.00
2020,05,05,08,53,9.10
2020,05,05,08,54,9.10
2020,05,05,08,55,9.20
2020,05,05,08,56,9.20
2020,05,05,08,57,9.20
2020,05,05,08,58,9.20
2020,05,05,08,59,9.30
2020,05,05,09,00,9.50
2020,05,05,09,01,9.60
2020,05,05,09,02,9.70
2020,05,05,09,03,9.80
2020,05,05,09,04,9.90
2020,05,05,09,05,10.00
2020,05,05,09,06,10.10
2020,05,05,09,07,10.10
2020,05,05,09,08,10.20
2020,05,05,09,09,10.40
2020,05,05,09,10,10.40
2020,05,05,09,11,10.50
2020,05,05,09,12,10.50
2020,05,05,09,13,10.60
2020,05,05,09,14,10.70
2020,05,05,09,15,10.80
2020,05,05,09,16,10.90
2020,05,05,09,17,11.00
2020,05,05,09,18,11.00
2020,05,05,09,19,11.10
2020,05,05,09,20,11.20
2020,05,05,09,21,11.30
2020,05,05,09,22,11.40
2020,05,05,09,23,11.50
2020,05,05,09,24,11.60
2020,05,05,09,25,11.70
2020,05,05,09,26,11.80
2020,05,05,09,27,11.80
2020,05,05,09,28,11.90
2020,05,05,09,29,11.80
2020,05,05,09,30,11.80
2020,05,05,09,31,11.80
2020,05,05,09,32,11.70
2020,05,05,09,33,11.70
2020,05,05,09,34,11.60
2020,05,05,09,35,11.50
2020,05,05,09,36,11.50
2020,05,05,09,37,11.50
2020,05,05,09,38,11.50
2020,05,05,09,39,11.50
2020,05,05,09,40,11.50
2020,05,05,09,41,11.50
2020,05,05,09,42,11.60
2020,05,05,09,43,11.60
2020,05,05,09,44,11.60
2020,05,05,09,45,11.70
2020,05,05,09,46,11.70
2020,05,05,09,47,11.70
2020,05,05,09,48,11.70
2020,05,05,09,49,11.70
2020,05,05,09,50,11.70
2020,05,05,09,51,11.80
2020,05,05,09,52,11.80
2020,05,05,09,53,11.90
2020,05,05,09,54,11.90
2020,05,05,09,55,12.00
2020,05,05,09,56,12.00
2020,05,05,09,57,11.90
2020,05,05,09,58,11.90
2020,05,05,09,59,11.90
2020,05,05,10,00,11.90
2020,05,05,10,01,11.90
2020,05,05,10,02,11.80
2020,05,05,10,03,11.80
2020,05,05,10,04,11.80
2020,05,05,10,05,11.70
2020,05,05,10,06,11.70
2020,05,05,10,07,11.70
2020,05,05,10,08,11.70
2020,05,05,10,09,11.70
2020,05,05,10,10,11.70
2020,05,05,10,11,11.70
2020,05,05,10,12,11.80
2020,05,05,10,13,11.80
2020,05,05,10,14,11.80
2020,05,05,10,15,11.90
2020,05,05,10,16,11.90
2020,05,05,10,17,12.00
2020,05,05,10,18,12.00
2020,05,05,10,19,12.10
2020,05,05,10,20,12.10
2020,05,05,10,21,12.10
2020,05,05,10,22,12.20
2020,05,05,10,23,12.20
2020,05,05,10,24,12.30
2020,05,05,10,25,12.40
2020,05,05,10,26,12.50
2020,05,05,10,27,12.60
2020,05,05,10,28,12.60
2020,05,05,10,29,12.70
2020,05,05,10,30,12.80
2020,05,05,10,31,12.80
2020,05,05,10,32,12.80
2020,05,05,10,33,12.80
2020,05,05,10,34,12.80
2020,05,05,10,35,12.80
2020,05,05,10,36,12.80
2020,05,05,10,37,12.80
2020,05,05,10,38,12.90
2020,05,05,10,39,12.90
2020,05,05,10,40,13.00
2020,05,05,10,41,13.10
2020,05,05,10,42,13.10
2020,05,05,10,43,13.10
2020,05,05,10,44,13.20
2020,05,05,10,45,13.20
2020,05,05,10,46,13.20
2020,05,05,10,47,13.20
2020,05,05,10,48,13.20
2020,05,05,10,49,13.10
2020,05,05,10,50,13.00
2020,05,05,10,51,12.90
2020,05,05,10,52,12.90
2020,05,05,10,53,12.90
2020,05,05,10,54,12.90
2020,05,05,10,55,13.00
2020,05,05,10,56,13.10
2020,05,05,10,57,13.10
2020,05,05,10,58,13.20
2020,05,05,10,59,13.20
2020,05,05,11,00,13.30
2020,05,05,11,01,13.20
2020,05,05,11,02,13.20
2020,05,05,11,03,13.20
2020,05,05,11,04,13.10
2020,05,05,11,05,13.10
2020,05,05,11,06,13.00
2020,05,05,11,07,13.00
2020,05,05,11,08,12.90
2020,05,05,11,09,12.90
2020,05,05,11,10,12.80
2020,05,05,11,11,12.70
2020,05,05,11,12,12.60
2020,05,05,11,13,12.60
2020,05,05,11,14,12.50
2020,05,05,11,15,12.50
2020,05,05,11,16,12.50
2020,05,05,11,17,12.40
2020,05,05,11,18,12.50
2020,05,05,11,19,12.50
2020,05,05,11,20,12.60
2020,05,05,11,21,12.60
2020,05,05,11,22,12.60
2020,05,05,11,23,12.60
2020,05,05,11,24,12.60
2020,05,05,11,25,12.70
2020,05,05,11,26,12.80
2020,05,05,11,27,12.80
2020,05,05,11,28,12.80
2020,05,05,11,29,12.80
2020,05,05,11,30,12.80
2020,05,05,11,31,12.80
2020,05,05,11,32,12.80
2020,05,05,11,33,12.90
2020,05,05,11,34,13.00
2020,05,05,11,35,13.00
2020,05,05,11,36,13.00
2020,05,05,11,37,13.10
2020,05,05,11,38,13.00
2020,05,05,11,39,13.10
2020,05,05,11,40,13.10
2020,05,05,11,41,13.00
2020,05,05,11,42,12.90
2020,05,05,11,43,13.00
2020,05,05,11,44,13.00
2020,05,05,11,45,13.10
2020,05,05,11,46,13.20
2020,05,05,11,47,13.30
2020,05,05,11,48,13.40
2020,05,05,11,49,13.40
2020,05,05,11,50,13.50
2020,05,05,11,51,13.50
2020,05,05,11,52,13.60
2020,05,05,11,53,13.50
2020,05,05,11,54,13.50
2020,05,05,11,55,13.50
2020,05,05,11,56,13.50
2020,05,05,11,57,13.50
2020,05,05,11,58,13.40
2020,05,05,11,59,13.50
2020,05,05,12,00,13.40
2020,05,05,12,01,13.40
2020,05,05,12,02,13.30
2020,05,05,12,03,13.40
2020,05,05,12,04,13.40
2020,05,05,12,05,13.40
2020,05,05,12,06,13.40
2020,05,05,12,07,13.40
2020,05,05,12,08,13.40
2020,05,05,12,09,13.50
2020,05,05,12,10,13.50
2020,05,05,12,11,13.60
2020,05,05,12,12,13.70
2020,05,05,12,13,13.70
2020,05,05,12,14,13.70
2020,05,05,12,15,13.70
2020,05,05,12,16,13.70
2020,05,05,12,17,13.70
2020,05,05,12,18,13.80
2020,05,05,12,19,13.70
2020,05,05,12,20,13.70
2020,05,05,12,21,13.60
2020,05,05,12,22,13.70
2020,05,05,12,23,13.80
2020,05,05,12,24,13.80
2020,05,05,12,25,13.90
2020,05,05,12,26,14.00
2020,05,05,12,27,14.00
2020,05,05,12,28,14.10
2020,05,05,12,29,14.20
2020,05,05,12,30,14.20
2020,05,05,12,31,14.20
2020,05,05,12,32,14.30
2020,05,05,12,33,14.40
2020,05,05,12,34,14.50
2020,05,05,12,35,14.60
2020,05,05,12,36,14.50
2020,05,05,12,37,14.50
2020,05,05,12,38,14.40
2020,05,05,12,39,14.30
2020,05,05,12,40,14.30
2020,05,05,12,41,14.20
2020,05,05,12,42,14.10
2020,05,05,12,43,14.00
2020,05,05,12,44,14.00
2020,05,05,12,45,13.90
2020,05,05,12,46,13.90
2020,05,05,12,47,13.90
2020,05,05,12,48,13.90
2020,05,05,12,49,13.90
2020,05,05,12,50,13.90
2020,05,05,12,51,13.90
2020,05,05,12,52,14.00
2020,05,05,12,53,14.00
2020,05,05,12,54,13.90
2020,05,05,12,55,13.90
2020,05,05,12,56,13.80
2020,05,05,12,57,13.80
2020,05,05,12,58,13.80
2020,05,05,12,59,13.80
2020,05,05,13,00,13.90
2020,05,05,13,01,14.00
2020,05,05,13,02,14.10
2020,05,05,13,03,14.20
2020,05,05,13,04,14.20
2020,05,05,13,05,14.30
2020,05,05,13,06,14.40
2020,05,05,13,07,14.40
2020,05,05,13,08,14.50
2020,05,05,13,09,14.50
2020,05,05,13,10,14.60
2020,05,05,13,11,14.60
2020,05,05,13,12,14.60
2020,05,05,13,13,14.70
2020,05,05,13,14,14.70
2020,05,05,13,15,14.80
2020,05,05,13,16,14.80
2020,05,05,13,17,14.90
2020,05,05,13,18,14.90
2020,05,05,13,19,14.90
2020,05,05,13,20,15.00
2020,05,05,13,21,15.10
2020,05,05,13,22,15.00
2020,05,05,13,23,15.00
2020,05,05,13,24,14.90
2020,05,05,13,25,14.90
2020,05,05,13,26,14.80
2020,05,05,13,27,14.80
2020,05,05,13,28,14.90
2020,05,05,13,29,14.90
2020,05,05,13,30,14.90
2020,05,05,13,31,14.90
2020,05,05,13,32,14.90
2020,05,05,13,33,14.90
2020,05,05,13,34,14.80
2020,05,05,13,35,14.80
2020,05,05,13,36,14.90
2020,05,05,13,37,15.00
2020,05,05,13,38,15.10
2020,05,05,13,39,15.10
2020,05,05,13,40,15.20
2020,05,05,13,41,15.20
2020,05,05,13,42,15.30
2020,05,05,13,43,15.30
2020,05,05,13,44,15.30
2020,05,05,13,45,15.40
2020,05,05,13,46,15.40
2020,05,05,13,47,15.30
2020,05,05,13,48,15.30
2020,05,05,13,49,15.30
2020,05,05,13,50,15.30
2020,05,05,13,51,15.30
2020,05,05,13,52,15.40
2020,05,05,13,53,15.50
2020,05,05,13,54,15.40
2020,05,05,13,55,15.40
2020,05,05,13,56,15.30
2020,05,05,13,57,15.20
2020,05,05,13,58,15.20
2020,05,05,13,59,15.30
2020,05,05,14,00,15.30
2020,05,05,14,01,15.30
2020,05,05,14,02,15.40
2020,05,05,14,03,15.30
2020,05,05,14,04,15.20
2020,05,05,14,05,15.10
2020,05,05,14,06,15.00
2020,05,05,14,07,15.00
2020,05,05,14,08,15.10
2020,05,05,14,09,15.10
2020,05,05,14,10,15.20
2020,05,05,14,11,15.20
2020,05,05,14,12,15.30
2020,05,05,14,13,15.30
2020,05,05,14,14,15.30
2020,05,05,14,15,15.30
2020,05,05,14,16,15.30
2020,05,05,14,17,15.40
2020,05,05,14,18,15.30
2020,05,05,14,19,15.20
2020,05,05,14,20,15.10
2020,05,05,14,21,15.00
2020,05,05,14,22,15.00
2020,05,05,14,23,14.90
2020,05,05,14,24,14.80
2020,05,05,14,25,14.90
2020,05,05,14,26,14.90
2020,05,05,14,27,14.90
2020,05,05,14,28,14.90
2020,05,05,14,29,15.00
2020,05,05,14,30,15.10
2020,05,05,14,31,15.20
2020,05,05,14,32,15.20
2020,05,05,14,33,15.20
2020,05,05,14,34,15.20
2020,05,05,14,35,15.20
2020,05,05,14,36,15.20
2020,05,05,14,37,15.20
2020,05,05,14,38,15.20
2020,05,05,14,39,15.30
2020,05,05,14,40,15.40
2020,05,05,14,41,15.50
2020,05,05,14,42,15.50
2020,05,05,14,43,15.60
2020,05,05,14,44,15.60
2020,05,05,14,45,15.70
2020,05,05,14,46,15.70
2020,05,05,14,47,15.80
2020,05,05,14,48,15.80
2020,05,05,14,49,15.80
2020,05,05,14,50,15.80
2020,05,05,14,51,15.70
2020,05,05,14,52,15.70
2020,05,05,14,53,15.80
2020,05,05,14,54,15.90
2020,05,05,14,55,15.90
2020,05,05,14,56,15.90
2020,05,05,14,57,15.80
2020,05,05,14,58,15.70
2020,05,05,14,59,15.60
2020,05,05,15,00,15.60
2020,05,05,15,01,15.60
2020,05,05,15,02,15.70
2020,05,05,15,03,15.70
2020,05,05,15,04,15.80
2020,05,05,15,05,15.80
2020,05,05,15,06,15.90
2020,05,05,15,07,15.90
2020,05,05,15,08,15.80
2020,05,05,15,09,15.80
2020,05,05,15,10,15.80
2020,05,05,15,11,15.80
2020,05,05,15,12,15.80
2020,05,05,15,13,15.80
2020,05,05,15,14,15.70
2020,05,05,15,15,15.70
2020,05,05,15,16,15.70
2020,05,05,15,17,15.60
2020,05,05,15,18,15.60
2020,05,05,15,19,15.70
2020,05,05,15,20,15.70
2020,05,05,15,21,15.70
2020,05,05,15,22,15.70
2020,05,05,15,23,15.80
2020,05,05,15,24,15.90
2020,05,05,15,25,16.10
2020,05,05,15,26,16.20
2020,05,05,15,27,16.20
2020,05,05,15,28,16.30
2020,05,05,15,29,16.30
2020,05,05,15,30,16.20
2020,05,05,15,31,16.20
2020,05,05,15,32,16.10
2020,05,05,15,33,16.20
2020,05,05,15,34,16.20
2020,05,05,15,35,16.20
2020,05,05,15,36,16.20
2020,05,05,15,37,16.20
2020,05,05,15,38,16.20
2020,05,05,15,39,16.10
2020,05,05,15,40,16.10
2020,05,05,15,41,16.10
2020,05,05,15,42,16.00
2020,05,05,15,43,16.00
2020,05,05,15,44,16.00
2020,05,05,15,45,16.00
2020,05,05,15,46,16.00
2020,05,05,15,47,16.00
2020,05,05,15,48,16.10
2020,05,05,15,49,16.20
2020,05,05,15,50,16.30
2020,05,05,15,51,16.30
2020,05,05,15,52,16.30
2020,05,05,15,53,16.20
2020,05,05,15,54,16.10
2020,05,05,15,55,16.10
2020,05,05,15,56,16.10
2020,05,05,15,57,16.20
2020,05,05,15,58,16.30
2020,05,05,15,59,16.40
2020,05,05,16,00,16.40
2020,05,05,16,01,16.30
2020,05,05,16,02,16.40
2020,05,05,16,03,16.40
2020,05,05,16,04,16.40
2020,05,05,16,05,16.30
2020,05,05,16,06,16.30
2020,05,05,16,07,16.30
2020,05,05,16,08,16.30
2020,05,05,16,09,16.30
2020,05,05,16,10,16.40
2020,05,05,16,11,16.40
2020,05,05,16,12,16.50
2020,05,05,16,13,16.40
2020,05,05,16,14,16.40
2020,05,05,16,15,16.40
2020,05,05,16,16,16.40
2020,05,05,16,17,16.40
2020,05,05,16,18,16.40
2020,05,05,16,19,16.40
2020,05,05,16,20,16.40
2020,05,05,16,21,16.30
2020,05,05,16,22,16.30
2020,05,05,16,23,16.20
2020,05,05,16,24,16.20
2020,05,05,16,25,16.30
2020,05,05,16,26,16.40
2020,05,05,16,27,16.40
2020,05,05,16,28,16.50
2020,05,05,16,29,16.50
2020,05,05,16,30,16.40
2020,05,05,16,31,16.40
2020,05,05,16,32,16.40
2020,05,05,16,33,16.40
2020,05,05,16,34,16.40
2020,05,05,16,35,16.40
2020,05,05,16,36,16.30
2020,05,05,16,37,16.30
2020,05,05,16,38,16.30
2020,05,05,16,39,16.20
2020,05,05,16,40,16.20
2020,05,05,16,41,16.20
2020,05,05,16,42,16.10
2020,05,05,16,43,16.10
2020,05,05,16,44,16.20
2020,05,05,16,45,16.30
2020,05,05,16,46,16.40
2020,05,05,16,47,16.40
2020,05,05,16,48,16.40
2020,05,05,16,49,16.30
2020,05,05,16,50,16.30
2020,05,05,16,51,16.30
2020,05,05,16,52,16.30
2020,05,05,16,53,16.30
2020,05,05,16,54,16.20
2020,05,05,16,55,16.20
2020,05,05,16,56,16.20
2020,05,05,16,57,16.20
2020,05,05,16,58,16.20
2020,05,05,16,59,16.10
2020,05,05,17,00,16.00
2020,05,05,17,01,16.00
2020,05,05,17,02,15.90
2020,05,05,17,03,15.90
2020,05,05,17,04,15.90
2020,05,05,17,05,16.00
2020,05,05,17,06,16.10
2020,05,05,17,07,16.20
2020,05,05,17,08,16.30
2020,05,05,17,09,16.30
2020,05,05,17,10,16.30
2020,05,05,17,11,16.40
2020,05,05,17,12,16.40
2020,05,05,17,13,16.40
2020,05,05,17,14,16.40
2020,05,05,17,15,16.50
2020,05,05,17,16,16.50
2020,05,05,17,17,16.50
2020,05,05,17,18,16.50
2020,05,05,17,19,16.50
2020,05,05,17,20,16.40
2020,05,05,17,21,16.40
2020,05,05,17,22,16.30
2020,05,05,17,23,16.30
2020,05,05,17,24,16.30
2020,05,05,17,25,16.40
2020,05,05,17,26,16.40
2020,05,05,17,27,16.40
2020,05,05,17,28,16.50
2020,05,05,17,29,16.50
2020,05,05,17,30,16.60
2020,05,05,17,31,16.70
2020,05,05,17,32,16.70
2020,05,05,17,33,16.80
2020,05,05,17,34,16.80
2020,05,05,17,35,16.70
2020,05,05,17,36,16.70
2020,05,05,17,37,16.70
2020,05,05,17,38,16.60
2020,05,05,17,39,16.60
2020,05,05,17,40,16.60
2020,05,05,17,41,16.60
2020,05,05,17,42,16.60
2020,05,05,17,43,16.60